This is the latest recevied weather packets stored in our database for station/object W1REE. If no packets are shown the sender has not sent any weather packets the latest 10 day(s).
| Time | Temp. | Humidity | Pressure | Rain* | Wind** | Luminosity | Snow |
|---|---|---|---|---|---|---|---|
| 1777803824 | 5.56° C | 43% | 1020.1 hPa | 0 mm | - | 0 W/m² | - |
| 1777803520 | 5° C | 50% | 1020.1 hPa | 0 mm | - | 0 W/m² | - |
| 1777803218 | 5.56° C | 55% | 1020.2 hPa | 0 mm | - | 0 W/m² | - |
| 1777802915 | 5° C | 49% | 1020.4 hPa | 0 mm | - | 0 W/m² | - |
| 1777802613 | 5° C | 52% | 1020.2 hPa | 0 mm | - | 0 W/m² | - |
| 1777802310 | 5° C | 55% | 1020.2 hPa | 0 mm | - | 0 W/m² | - |
| 1777802008 | 5.56° C | 50% | 1020.4 hPa | 0 mm | - | 0 W/m² | - |
| 1777801706 | 5.56° C | 45% | 1020.4 hPa | 0 mm | - | 0 W/m² | - |
| 1777801403 | 5.56° C | 47% | 1020.4 hPa | 0 mm | - | 0 W/m² | - |
| 1777801099 | 5.56° C | 52% | 1020.5 hPa | 0 mm | - | 0 W/m² | - |
| 1777800796 | 5.56° C | 51% | 1020.5 hPa | 0 mm | - | 0 W/m² | - |
| 1777800491 | 5.56° C | 55% | 1020.5 hPa | 0 mm | - | 0 W/m² | - |
| 1777800188 | 6.11° C | 51% | 1020.5 hPa | 0 mm | - | 0 W/m² | - |
| 1777799888 | 6.11° C | 50% | 1020.5 hPa | 0 mm | - | 0 W/m² | - |
| 1777799585 | 6.11° C | 49% | 1020.5 hPa | 0 mm | - | 0 W/m² | - |
| 1777799281 | 6.11° C | 50% | 1020.2 hPa | 0 mm | - | 0 W/m² | - |
| 1777798978 | 5.56° C | 52% | 1020.5 hPa | 0 mm | - | 0 W/m² | - |
| 1777798674 | 6.11° C | 49% | 1020.7 hPa | 0 mm | - | 0 W/m² | - |
| 1777798370 | 6.11° C | 50% | 1020.6 hPa | 0 mm | - | 0 W/m² | - |
| 1777798067 | 5.56° C | 48% | 1020.6 hPa | 0 mm | - | 0 W/m² | - |
| 1777797765 | 5.56° C | 53% | 1020.6 hPa | 0 mm | - | 0 W/m² | - |
| 1777797463 | 5° C | 48% | 1020.6 hPa | 0 mm | - | 0 W/m² | - |
| 1777797159 | 5.56° C | 55% | 1020.5 hPa | 0 mm | - | 0 W/m² | - |
| 1777796856 | 6.11° C | 50% | 1020.6 hPa | 0 mm | - | 0 W/m² | - |
| 1777796553 | 6.11° C | 46% | 1020.6 hPa | 0 mm | - | 0 W/m² | - |
* Rain latest hour (hover to see other rain measurements)
** Current wind speed in m/s (hover to see current wind gust speed)